Time,TemperatureF,DewpointF,PressureIn,WindDirection,WindDirectionDegrees,WindSpeedMPH,WindSpeedGustMPH,Humidity,HourlyPrecipIn,Conditions,Clouds,dailyrainin,SolarRadiationWatts/m^2,SoftwareType,DateUTC
2013-06-19 00:01:00,67.0,62.0,-100.00,South,180,3.0,8.0,83,0.00,,,0.00,0.000000,,2013-06-19 10:01:00,
2013-06-19 00:11:00,67.0,62.0,-100.00,South,180,3.0,8.0,83,0.00,,,0.00,0.000000,,2013-06-19 10:11:00,
2013-06-19 00:22:00,67.0,62.0,-100.00,South,180,3.0,8.0,83,0.00,,,0.00,0.000000,,2013-06-19 10:22:00,
2013-06-19 00:33:00,67.0,62.0,-100.00,South,180,3.0,8.0,83,0.00,,,0.00,0.000000,,2013-06-19 10:33:00,
2013-06-19 01:02:00,66.0,60.0,-100.00,South,182,5.0,9.0,82,0.00,,,0.00,0.000000,,2013-06-19 11:02:00,
2013-06-19 01:11:00,66.0,60.0,-100.00,South,182,5.0,9.0,82,0.00,,,0.00,0.000000,,2013-06-19 11:11:00,
2013-06-19 01:22:00,66.0,60.0,-100.00,South,182,5.0,9.0,82,0.00,,,0.00,0.000000,,2013-06-19 11:22:00,
2013-06-19 01:33:00,66.0,60.0,-100.00,South,182,5.0,9.0,82,0.00,,,0.00,0.000000,,2013-06-19 11:33:00,
2013-06-19 02:01:00,64.0,59.0,-100.00,SSW,192,4.0,7.0,83,0.00,,,0.00,0.000000,,2013-06-19 12:01:00,
2013-06-19 02:11:00,64.0,59.0,-100.00,SSW,192,4.0,7.0,83,0.00,,,0.00,0.000000,,2013-06-19 12:11:00,
2013-06-19 02:22:00,64.0,59.0,-100.00,SSW,192,4.0,7.0,83,0.00,,,0.00,0.000000,,2013-06-19 12:22:00,
2013-06-19 02:34:00,64.0,59.0,-100.00,SSW,192,4.0,7.0,83,0.00,,,0.00,0.000000,,2013-06-19 12:34:00,
2013-06-19 03:02:00,64.0,58.0,-100.00,South,176,5.0,9.0,81,0.00,,,0.00,0.000000,,2013-06-19 13:02:00,
2013-06-19 03:11:00,64.0,58.0,-100.00,South,176,5.0,9.0,81,0.00,,,0.00,0.000000,,2013-06-19 13:11:00,
2013-06-19 03:22:00,64.0,58.0,-100.00,South,176,5.0,9.0,81,0.00,,,0.00,0.000000,,2013-06-19 13:22:00,
2013-06-19 03:33:00,64.0,58.0,-100.00,South,176,5.0,9.0,81,0.00,,,0.00,0.000000,,2013-06-19 13:33:00,
2013-06-19 04:02:00,63.0,57.0,-100.00,SSE,167,3.0,7.0,80,0.00,,,0.00,0.000000,,2013-06-19 14:02:00,
2013-06-19 04:11:00,63.0,57.0,-100.00,SSE,167,3.0,7.0,80,0.00,,,0.00,0.000000,,2013-06-19 14:11:00,
2013-06-19 04:22:00,63.0,57.0,-100.00,SSE,167,3.0,7.0,80,0.00,,,0.00,0.000000,,2013-06-19 14:22:00,
2013-06-19 04:33:00,63.0,57.0,-100.00,SSE,167,3.0,7.0,80,0.00,,,0.00,0.000000,,2013-06-19 14:33:00,
2013-06-19 05:01:00,60.0,56.0,-100.00,NW,317,1.0,7.0,86,0.00,,,0.00,0.000000,,2013-06-19 15:01:00,
2013-06-19 05:11:00,60.0,56.0,-100.00,NW,317,1.0,7.0,86,0.00,,,0.00,0.000000,,2013-06-19 15:11:00,
2013-06-19 05:22:00,60.0,56.0,-100.00,NW,317,1.0,7.0,86,0.00,,,0.00,0.000000,,2013-06-19 15:22:00,
2013-06-19 05:33:00,60.0,56.0,-100.00,NW,317,1.0,7.0,86,0.00,,,0.00,0.000000,,2013-06-19 15:33:00,
2013-06-19 06:01:00,61.0,56.0,-100.00,SSE,153,5.0,8.0,85,0.00,,,0.00,0.000000,,2013-06-19 16:01:00,
2013-06-19 06:11:00,61.0,56.0,-100.00,SSE,153,5.0,8.0,85,0.00,,,0.00,0.000000,,2013-06-19 16:11:00,
2013-06-19 06:22:00,61.0,56.0,-100.00,SSE,153,5.0,8.0,85,0.00,,,0.00,0.000000,,2013-06-19 16:22:00,
2013-06-19 06:33:00,61.0,56.0,-100.00,SSE,153,5.0,8.0,85,0.00,,,0.00,0.000000,,2013-06-19 16:33:00,
2013-06-19 07:02:00,63.0,59.0,-100.00,SE,140,3.0,7.0,88,0.00,,,0.00,23.000000,,2013-06-19 17:02:00,
2013-06-19 07:11:00,63.0,59.0,-100.00,SE,140,3.0,7.0,88,0.00,,,0.00,23.000000,,2013-06-19 17:11:00,
2013-06-19 07:22:00,63.0,59.0,-100.00,SE,140,3.0,7.0,88,0.00,,,0.00,23.000000,,2013-06-19 17:22:00,
2013-06-19 07:34:00,63.0,59.0,-100.00,SE,140,3.0,7.0,88,0.00,,,0.00,23.000000,,2013-06-19 17:34:00,
2013-06-19 08:01:00,71.0,63.0,-100.00,SSE,162,3.0,6.0,77,0.00,,,-99.99,213.000000,,2013-06-19 18:01:00,
2013-06-19 08:11:00,71.0,63.0,-100.00,SSE,162,3.0,6.0,77,0.00,,,-99.99,213.000000,,2013-06-19 18:11:00,
2013-06-19 08:23:00,71.0,63.0,-100.00,SSE,162,3.0,6.0,77,0.00,,,-99.99,213.000000,,2013-06-19 18:23:00,
2013-06-19 08:33:00,71.0,63.0,-100.00,SSE,162,3.0,6.0,77,0.00,,,-99.99,213.000000,,2013-06-19 18:33:00,
2013-06-19 09:01:00,76.0,63.0,-100.00,West,269,3.0,10.0,65,0.00,,,0.00,495.000000,,2013-06-19 19:01:00,
2013-06-19 09:11:00,76.0,63.0,-100.00,West,269,3.0,10.0,65,0.00,,,0.00,495.000000,,2013-06-19 19:11:00,
2013-06-19 09:22:00,76.0,63.0,-100.00,West,269,3.0,10.0,65,0.00,,,0.00,495.000000,,2013-06-19 19:22:00,
2013-06-19 09:32:00,76.0,63.0,-100.00,West,269,3.0,10.0,65,0.00,,,0.00,495.000000,,2013-06-19 19:32:00,
2013-06-19 10:02:00,78.0,62.0,-100.00,NNW,327,5.0,10.0,58,0.00,,,0.00,794.000000,,2013-06-19 20:02:00,
2013-06-19 10:11:00,78.0,62.0,-100.00,NNW,327,5.0,10.0,58,0.00,,,0.00,794.000000,,2013-06-19 20:11:00,
2013-06-19 10:22:00,78.0,62.0,-100.00,NNW,327,5.0,10.0,58,0.00,,,0.00,794.000000,,2013-06-19 20:22:00,
2013-06-19 10:33:00,78.0,62.0,-100.00,NNW,327,5.0,10.0,58,0.00,,,0.00,794.000000,,2013-06-19 20:33:00,
2013-06-19 11:02:00,76.0,58.0,-100.00,NNE,12,10.0,21.0,53,0.00,,,0.00,954.000000,,2013-06-19 21:02:00,
2013-06-19 11:11:00,76.0,58.0,-100.00,NNE,12,10.0,21.0,53,0.00,,,0.00,954.000000,,2013-06-19 21:11:00,
2013-06-19 11:22:00,76.0,58.0,-100.00,NNE,12,10.0,21.0,53,0.00,,,0.00,954.000000,,2013-06-19 21:22:00,
2013-06-19 11:33:00,76.0,58.0,-100.00,NNE,12,10.0,21.0,53,0.00,,,0.00,954.000000,,2013-06-19 21:33:00,
2013-06-19 12:01:00,78.0,64.0,-100.00,North,354,6.0,15.0,62,0.00,,,0.00,835.000000,,2013-06-19 22:01:00,
2013-06-19 12:11:00,78.0,64.0,-100.00,North,354,6.0,15.0,62,0.00,,,0.00,835.000000,,2013-06-19 22:11:00,
2013-06-19 12:22:00,78.0,64.0,-100.00,North,354,6.0,15.0,62,0.00,,,0.00,835.000000,,2013-06-19 22:22:00,
2013-06-19 12:34:00,78.0,64.0,-100.00,North,354,6.0,15.0,62,0.00,,,0.00,835.000000,,2013-06-19 22:34:00,
2013-06-19 13:02:00,76.0,62.0,-100.00,NW,320,6.0,14.0,63,0.00,,,0.00,645.000000,,2013-06-19 23:02:00,
2013-06-19 13:12:00,76.0,62.0,-100.00,NW,320,6.0,14.0,63,0.00,,,0.00,645.000000,,2013-06-19 23:12:00,
2013-06-19 13:23:00,76.0,62.0,-100.00,NW,320,6.0,14.0,63,0.00,,,0.00,645.000000,,2013-06-19 23:23:00,
2013-06-19 13:33:00,76.0,62.0,-100.00,NW,320,6.0,14.0,63,0.00,,,0.00,645.000000,,2013-06-19 23:33:00,
2013-06-19 14:11:00,77.0,63.0,-100.00,NNW,329,6.0,16.0,63,0.00,,,0.00,697.000000,,2013-06-20 00:11:00,
2013-06-19 14:22:00,77.0,63.0,-100.00,NNW,329,6.0,16.0,63,0.00,,,0.00,697.000000,,2013-06-20 00:22:00,
2013-06-19 14:33:00,77.0,63.0,-100.00,NNW,329,6.0,16.0,63,0.00,,,0.00,697.000000,,2013-06-20 00:33:00,
2013-06-19 15:02:00,78.0,66.0,-100.00,NW,325,8.0,17.0,67,0.00,,,0.00,692.000000,,2013-06-20 01:02:00,
2013-06-19 15:11:00,78.0,66.0,-100.00,NW,325,8.0,17.0,67,0.00,,,0.00,692.000000,,2013-06-20 01:11:00,
2013-06-19 15:22:00,78.0,66.0,-100.00,NW,325,8.0,17.0,67,0.00,,,0.00,692.000000,,2013-06-20 01:22:00,
2013-06-19 15:33:00,78.0,66.0,-100.00,NW,325,8.0,17.0,67,0.00,,,0.00,692.000000,,2013-06-20 01:33:00,
2013-06-19 16:02:00,75.0,62.0,-100.00,NW,308,7.0,15.0,64,0.00,,,0.00,338.000000,,2013-06-20 02:02:00,
2013-06-19 16:11:00,75.0,62.0,-100.00,NW,308,7.0,15.0,64,0.00,,,0.00,338.000000,,2013-06-20 02:11:00,
2013-06-19 16:24:00,75.0,62.0,-100.00,NW,308,7.0,15.0,64,0.00,,,0.00,338.000000,,2013-06-20 02:24:00,
2013-06-19 16:33:00,75.0,62.0,-100.00,NW,308,7.0,15.0,64,0.00,,,0.00,338.000000,,2013-06-20 02:33:00,
2013-06-19 17:02:00,73.0,62.0,-100.00,WNW,289,7.0,16.0,69,0.00,,,0.00,276.000000,,2013-06-20 03:02:00,
2013-06-19 17:11:00,73.0,62.0,-100.00,WNW,289,7.0,16.0,69,0.00,,,0.00,276.000000,,2013-06-20 03:11:00,
2013-06-19 17:22:00,73.0,62.0,-100.00,WNW,289,7.0,16.0,69,0.00,,,0.00,276.000000,,2013-06-20 03:22:00,
2013-06-19 17:33:00,73.0,62.0,-100.00,WNW,289,7.0,16.0,69,0.00,,,0.00,276.000000,,2013-06-20 03:33:00,
2013-06-19 18:01:00,74.0,64.0,-100.00,NW,309,5.0,17.0,70,0.00,,,0.00,197.000000,,2013-06-20 04:01:00,
2013-06-19 18:11:00,74.0,64.0,-100.00,NW,309,5.0,17.0,70,0.00,,,0.00,197.000000,,2013-06-20 04:11:00,
2013-06-19 18:22:00,74.0,64.0,-100.00,NW,309,5.0,17.0,70,0.00,,,0.00,197.000000,,2013-06-20 04:22:00,
2013-06-19 18:33:00,74.0,64.0,-100.00,NW,309,5.0,17.0,70,0.00,,,0.00,197.000000,,2013-06-20 04:33:00,
2013-06-19 19:02:00,75.0,58.0,-100.00,NNE,16,8.0,17.0,55,0.00,,,0.00,126.000000,,2013-06-20 05:02:00,
2013-06-19 19:12:00,75.0,58.0,-100.00,NNE,16,8.0,17.0,55,0.00,,,0.00,126.000000,,2013-06-20 05:12:00,
2013-06-19 19:22:00,75.0,58.0,-100.00,NNE,16,8.0,17.0,55,0.00,,,0.00,126.000000,,2013-06-20 05:22:00,
2013-06-19 19:33:00,75.0,58.0,-100.00,NNE,16,8.0,17.0,55,0.00,,,0.00,126.000000,,2013-06-20 05:33:00,
2013-06-19 20:11:00,72.0,54.0,-100.00,NNE,28,8.0,16.0,53,0.00,,,0.00,24.000000,,2013-06-20 06:11:00,
2013-06-19 20:22:00,72.0,54.0,-100.00,NNE,28,8.0,16.0,53,0.00,,,0.00,24.000000,,2013-06-20 06:22:00,
2013-06-19 20:33:00,72.0,54.0,-100.00,NNE,28,8.0,16.0,53,0.00,,,0.00,24.000000,,2013-06-20 06:33:00,
2013-06-19 21:01:00,69.0,53.0,-100.00,ENE,74,4.0,12.0,57,0.00,,,0.00,0.000000,,2013-06-20 07:01:00,
2013-06-19 21:12:00,69.0,53.0,-100.00,ENE,74,4.0,12.0,57,0.00,,,0.00,0.000000,,2013-06-20 07:12:00,
2013-06-19 21:22:00,69.0,53.0,-100.00,ENE,74,4.0,12.0,57,0.00,,,0.00,0.000000,,2013-06-20 07:22:00,
2013-06-19 21:34:00,69.0,53.0,-100.00,ENE,74,4.0,12.0,57,0.00,,,0.00,0.000000,,2013-06-20 07:34:00,
2013-06-19 22:02:00,66.0,53.0,-100.00,SE,135,2.0,6.0,63,0.00,,,0.00,0.000000,,2013-06-20 08:02:00,
2013-06-19 22:11:00,66.0,53.0,-100.00,SE,135,2.0,6.0,63,0.00,,,0.00,0.000000,,2013-06-20 08:11:00,
2013-06-19 22:22:00,66.0,53.0,-100.00,SE,135,2.0,6.0,63,0.00,,,0.00,0.000000,,2013-06-20 08:22:00,
2013-06-19 22:34:00,66.0,53.0,-100.00,SE,135,2.0,6.0,63,0.00,,,0.00,0.000000,,2013-06-20 08:34:00,
2013-06-19 23:01:00,64.0,54.0,-100.00,SE,146,3.0,8.0,70,0.00,,,0.00,0.000000,,2013-06-20 09:01:00,
2013-06-19 23:11:00,64.0,54.0,-100.00,SE,146,3.0,8.0,70,0.00,,,0.00,0.000000,,2013-06-20 09:11:00,
2013-06-19 23:22:00,64.0,54.0,-100.00,SE,146,3.0,8.0,70,0.00,,,0.00,0.000000,,2013-06-20 09:22:00,
2013-06-19 23:33:00,64.0,54.0,-100.00,SE,146,3.0,8.0,70,0.00,,,0.00,0.000000,,2013-06-20 09:33:00,